Weather History for KMCK - May, 2013

Change the Weather History Date:

Monday, May 20, 2013

  Actual Average Record
Temperature  
Mean Temperature 61 °F 61 °F  
Max Temperature 69 °F 74 °F 99 °F (1948)
Min Temperature 53 °F 47 °F 27 °F (1931)
Degree Days  
Heating Degree Days 5    
Growing Degree Days 10 (Base 50)    
Moisture  
Dew Point 47 °F    
Average Humidity 67    
Maximum Humidity 88    
Minimum Humidity 42    
Precipitation  
Precipitation T in 0.09 in 0.01 in (2001)
Month to date precipitation 0.38 1.91  
Year to date precipitation 3.95 6.71  
Sea Level Pressure  
Sea Level Pressure 29.73 in    
Wind  
Wind Speed 17 mph (WNW)    
Max Wind Speed 29 mph    
Max Gust Speed 43 mph    
Visibility 10 miles    
Events      
T = Trace of Precipitation, MM = Missing Value Source: NWS Daily Summary

Daily Weather History Graph

Daily Weather History Graph

Search for Another Location

Airport or City:

Trip Planner

Search our weather history database for the weather conditions in past years. The results will help you decide how hot, cold, wet, or windy it might be!

Date:

Astronomy

May. 20, 2013 Rise Set
Actual Time 6:22 AM CDT 8:56 PM CDT
Civil Twilight 5:50 AM CDT 9:27 PM CDT
Nautical Twilight 5:11 AM CDT 10:06 PM CDT
Astronomical Twilight 4:28 AM CDT 10:50 PM CDT
Moon 4:05 PM CDT (5/20) 3:18 AM CDT (5/20)
Length of Visible Light 15h 36m
Length of Day
14h 34m
Waxing Gibbous, 75% of the Moon is Illuminated
May 20
Waxing Gibbous
May 24
Full
May 31
Last Quarter
Jun 8
New
Jun 16
First Quarter

Hourly Weather History & Observations

Time (CDT) Temp. Dew Point Humidity Pressure Visibility Wind Dir Wind Speed Gust Speed Precip Events Conditions
12:53 AM 57.9 °F 50.0 °F 75% 29.66 in 10.0 mi West 13.8 mph - N/A   Mostly Cloudy
1:07 AM 57.2 °F 50.0 °F 77% 29.71 in 10.0 mi West 15.0 mph - N/A   Scattered Clouds
1:53 AM 57.9 °F 51.1 °F 78% 29.67 in 10.0 mi WNW 13.8 mph 21.9 mph N/A   Mostly Cloudy
2:53 AM 55.4 °F 51.8 °F 88% 29.72 in 10.0 mi WNW 12.7 mph - N/A   Overcast
3:53 AM 55.9 °F 51.1 °F 84% 29.67 in 10.0 mi WNW 10.4 mph - N/A   Mostly Cloudy
4:53 AM 55.9 °F 51.1 °F 84% 29.68 in 10.0 mi WNW 10.4 mph - N/A   Overcast
5:53 AM 55.4 °F 51.8 °F 88% 29.72 in 10.0 mi WNW 10.4 mph - N/A   Overcast
6:53 AM 55.4 °F 51.8 °F 88% 29.74 in 10.0 mi WNW 15.0 mph 21.9 mph N/A   Overcast
7:53 AM 57.0 °F 48.9 °F 74% 29.72 in 10.0 mi West 13.8 mph 21.9 mph N/A   Partly Cloudy
8:53 AM 60.8 °F 48.2 °F 63% 29.76 in 10.0 mi West 18.4 mph 25.3 mph N/A   Partly Cloudy
9:53 AM 64.0 °F 46.0 °F 52% 29.71 in 10.0 mi West 23.0 mph 32.2 mph N/A   Mostly Cloudy
10:53 AM 63.0 °F 44.1 °F 50% 29.72 in 10.0 mi WNW 21.9 mph 28.8 mph N/A   Overcast
11:53 AM 64.0 °F 44.1 °F 48% 29.72 in 10.0 mi West 21.9 mph 32.2 mph N/A   Overcast
12:53 PM 64.4 °F 42.8 °F 45% 29.75 in 10.0 mi WNW 21.9 mph 34.5 mph N/A   Overcast
1:53 PM 66.0 °F 42.1 °F 42% 29.70 in 10.0 mi WNW 26.5 mph 38.0 mph N/A   Overcast
2:53 PM 64.0 °F 42.1 °F 45% 29.72 in 10.0 mi WNW 25.3 mph 42.6 mph N/A   Mostly Cloudy
3:53 PM 64.9 °F 44.1 °F 47% 29.71 in 10.0 mi NW 28.8 mph 41.4 mph N/A   Mostly Cloudy
4:53 PM 63.0 °F 43.0 °F 48% 29.70 in 10.0 mi WNW 25.3 mph 36.8 mph N/A   Mostly Cloudy
5:53 PM 61.0 °F 45.0 °F 56% 29.72 in 10.0 mi WNW 28.8 mph 39.1 mph N/A   Mostly Cloudy
6:53 PM 57.9 °F 46.9 °F 67% 29.75 in 10.0 mi WNW 26.5 mph 36.8 mph N/A   Overcast
7:53 PM 57.9 °F 46.9 °F 67% 29.75 in 10.0 mi WNW 17.3 mph 29.9 mph N/A   Overcast
8:53 PM 57.2 °F 48.2 °F 72% 29.80 in 10.0 mi WNW 17.3 mph - N/A   Overcast
9:18 PM 55.4 °F 48.2 °F 77% 29.81 in 10.0 mi NW 21.9 mph 29.9 mph N/A   Overcast
9:53 PM 54.0 °F 48.0 °F 80% 29.77 in 10.0 mi WNW 19.6 mph 28.8 mph 0.00 in   Mostly Cloudy
10:53 PM 55.0 °F 46.9 °F 74% 29.80 in 10.0 mi West 10.4 mph - N/A   Overcast
11:53 PM 54.0 °F 46.0 °F 75% 29.81 in 10.0 mi West 11.5 mph - N/A   Mostly Cloudy